[[[{"header":{"parameterUnit":"kt","parameterCategory":2,"dx":1,"dy":1,"la1":30.253999710083008,"la2":30.299108505249023,"lo1":-89.0895004272461,"lo2":-89.04439544677734,"nx":28,"ny":28,"refTime":"2022-10-08T21:00:00:Z","depth":0,"parameterNumber":1,"parameterNumberName":"U-component_of_WINDS"},"data":[-2.7346,-2.7368,-2.7348,-2.7364,-2.7349,-2.7357,-2.7353,-2.7346,-2.7336,-2.7343,-2.7344,-2.7326,-2.7307,-2.7303,-2.7303,-2.7295,-2.7297,-2.732,-2.7307,-2.7222,-2.7209,-2.7197,-2.719,-2.7321,-2.7321,-2.7398,-2.7399,-2.7399,-2.7285,-2.727,-2.7273,-2.7262,-2.7264,-2.7229,-2.7218,-2.7222,-2.723,-2.7217,-2.7217,-2.7222,-2.7223,-2.7196,-2.7194,-2.7205,-2.7189,-2.7206,-2.7205,-2.7203,-2.7111,-2.7104,-2.7219,-2.7219,-2.7219,-2.7218,-2.7218,-2.7218,-2.7171,-2.7185,-2.7166,-2.7169,-2.7157,-2.715,-2.716,-2.7137,-2.714,-2.7135,-2.711,-2.7119,-2.7102,-2.7089,-2.708,-2.7087,-2.7064,-2.7077,-2.708,-2.7084,-2.7091,-2.6984,-2.7085,-2.7085,-2.7084,-2.7084,-2.7084,0,-2.7081,-2.7062,-2.7063,-2.7058,-2.7059,-2.7053,-2.7044,-2.705,-2.7004,-2.7009,-2.7013,-2.7012,-2.701,-2.7012,-2.7005,-2.6993,-2.6958,-2.6952,-2.6961,-2.6974,-2.6986,-2.6981,-2.6833,-2.695,-2.6948,-2.6947,-2.6947,-2.6946,-2.6964,-2.6983,-2.6953,-2.6957,-2.6946,-2.6953,-2.6952,-2.691,-2.6912,-2.6895,-2.691,-2.6911,-2.691,-2.692,-2.6894,-2.6892,-2.6876,-2.6923,-2.6875,-2.6887,-2.6878,-2.6877,-2.6879,-2.6933,-2.6935,-2.6936,-2.6937,0,-2.6901,-2.6867,-2.6889,-2.6857,-2.685,-2.6872,-2.6845,-2.6857,-2.6833,-2.6848,-2.6849,-2.6812,-2.6817,-2.6782,-2.6781,-2.6763,-2.68,-2.6783,-2.6805,-2.68,-2.684,-2.6837,-2.697,-2.6986,-2.6849,-2.6851,-2.6852,0,-2.6789,-2.6815,-2.6762,-2.6777,-2.6805,-2.6762,-2.6791,-2.6773,-2.6758,-2.6768,-2.6723,-2.6734,-2.6687,-2.6694,-2.6667,-2.6691,-2.669,-2.6678,-2.6671,-2.6683,-2.6685,-2.6684,-2.6679,-2.6653,-2.6652,-2.6652,-2.6651,0,-2.6694,-2.6696,-2.672,-2.6715,-2.6684,-2.6696,-2.6684,-2.6666,-2.6666,-2.666,-2.666,-2.6656,-2.6655,-2.6653,-2.6619,-2.6589,-2.6647,-2.6598,-2.6635,-2.6636,-2.6651,-2.6651,-2.6776,-2.665,-2.665,-2.665,-2.665,0,-2.6598,-2.6593,-2.6632,-2.6605,-2.6607,-2.6623,-2.6617,-2.6622,-2.6606,-2.659,-2.6585,-2.6551,-2.6568,-2.6522,-2.6546,-2.6516,-2.6517,-2.6506,-2.6508,-2.6509,-2.6459,-2.6536,-2.6658,-2.667,-2.6508,-2.6507,-2.6506,0,-2.65,-2.653,-2.6493,-2.6531,-2.6541,-2.6488,-2.6505,-2.6492,-2.6472,-2.6477,-2.6454,-2.6461,-2.6419,-2.6416,-2.6432,-2.641,-2.6449,-2.6403,-2.6413,-2.6413,-2.6419,-2.6531,-2.6559,-2.6635,-2.649,-2.6492,-2.6493,0,-2.6419,-2.638,-2.639,-2.6382,-2.6358,-2.6365,-2.6384,-2.6381,-2.6386,-2.6376,-2.6392,-2.6399,-2.6368,-2.6364,-2.6336,-2.6355,-2.6421,-2.6319,-2.6318,-2.6339,-2.6479,-2.6505,-2.6518,-2.6398,-2.64,-2.6401,-2.6481,0,-2.6284,-2.6295,-2.6318,-2.6303,-2.6303,-2.6325,-2.6287,-2.6292,-2.6264,-2.6242,-2.6264,-2.6244,-2.6241,-2.6246,-2.622,-2.6273,-2.6259,-2.6226,-2.6179,-2.6253,-2.6278,-2.6288,-2.6144,-2.6143,-2.6141,-2.614,0,0,-2.6199,-2.6213,-2.6171,-2.6188,-2.6185,-2.6131,-2.6157,-2.6149,-2.6133,-2.6132,-2.6106,-2.6114,-2.61,-2.613,-2.615,-2.6149,-2.6155,-2.6131,-2.6218,-2.6227,-2.6235,-2.6262,-2.6274,-2.6138,-2.6137,-2.6137,-2.6137,0,-2.6142,-2.6127,-2.6153,-2.6142,-2.6124,-2.6099,-2.6106,-2.6078,-2.6065,-2.6086,-2.6041,-2.6049,-2.6057,-2.6048,-2.6044,-2.6126,-2.6092,-2.6127,-2.6184,-2.6205,-2.6216,-2.6225,-2.6255,-2.6266,-2.6133,-2.6134,-2.6134,0,-2.6057,-2.6036,-2.6044,-2.6035,-2.6023,-2.6034,-2.5975,-2.5989,-2.5996,-2.5936,-2.5958,-2.5942,-2.5926,-2.596,-2.5973,-2.5949,-2.6037,-2.6003,-2.601,-2.6011,-2.603,-2.6043,-2.6054,-2.5905,-2.5904,-2.5904,0,0,-2.6013,-2.6021,-2.5986,-2.602,-2.6015,-2.5978,-2.598,-2.5953,-2.5939,-2.5934,-2.5913,-2.5902,-2.5906,-2.591,-2.5912,-2.5953,-2.5947,-2.5976,-2.5987,-2.5996,-2.6002,-2.6023,-2.6036,-2.5901,-2.5901,-2.5901,0,0,-2.5992,-2.5952,-2.5926,-2.596,-2.5949,-2.5917,-2.5939,-2.5907,-2.5905,-2.5898,-2.5853,-2.5848,-2.5878,-2.5865,-2.5836,-2.5895,-2.5849,-2.5855,-2.5902,-2.5915,-2.5926,-2.5929,-2.5774,0,0,0,0,0,-2.5914,-2.5956,-2.5934,-2.5934,-2.5922,-2.5929,-2.5928,-2.5891,-2.5859,-2.5878,-2.5855,-2.5819,-2.584,-2.5814,-2.5815,-2.5847,-2.587,-2.5875,-2.5881,-2.5951,-2.5965,-2.5977,0,0,0,0,0,0,-2.5913,-2.5914,-2.5932,-2.5903,-2.59,-2.5927,-2.5866,-2.5857,-2.5856,-2.5849,-2.5824,-2.5818,-2.5787,-2.5811,-2.5812,-2.5844,-2.5774,-2.5872,-2.5877,-2.5881,-2.5956,-2.5968,-2.5978,0,0,0,0,0,-2.5913,-2.5913,-2.5904,-2.5902,-2.5899,-2.586,-2.5864,-2.5856,-2.5855,-2.582,-2.5812,-2.5827,-2.5789,-2.5788,-2.5812,-2.5844,-2.5772,-2.5773,-2.5875,-2.5879,-2.5882,-2.5962,0,0,0,0,0,0,-2.5913,-2.5906,-2.5903,-2.59,-2.5883,-2.5858,-2.5853,-2.5856,-2.5825,-2.5818,-2.5821,-2.5815,-2.5791,-2.5789,-2.5789,-2.5846,-2.5771,-2.5772,-2.5772,-2.5878,-2.5881,-2.5883,0,0,0,0,0,0,-2.5906,-2.5905,-2.5901,-2.5879,-2.5874,-2.5856,-2.5852,-2.5867,-2.5826,-2.5827,-2.5822,-2.5819,-2.5792,-2.5791,-2.579,-2.5815,-2.577,-2.5771,-2.5772,-2.5772,-2.588,-2.5883,0,0,0,0,0,0,-2.5905,-2.5904,-2.588,-2.5876,-2.5871,-2.5845,-2.5869,-2.5859,-2.5806,-2.583,-2.58,-2.5798,-2.5795,-2.5793,-2.5792,-2.5817,-2.5816,-2.577,-2.5771,-2.5771,-2.5771,0,0,0,0,0,0,0,-2.5904,-2.5919,-2.5915,-2.5873,-2.5869,-2.5881,-2.588,-2.5879,-2.5806,-2.5803,-2.5801,-2.5799,-2.5766,-2.5767,-2.5768,-2.5819,0,0,-2.577,-2.5771,0,0,0,0,0,0,0,0,-2.5918,-2.5919,-2.5915,-2.5915,-2.5914,-2.5881,-2.588,-2.588,-2.5805,-2.5803,-2.5801,-2.58,-2.5767,-2.5767,-2.5768,0,0,0,0,0,0,0,0,0,0,0,0,0,0,0,-2.5915,-2.5915,0,-2.5881,-2.588,-2.588,-2.5805,-2.5803,-2.5802,-2.58,-2.5767,-2.5767,-2.5768,0,0,0,0,0,0,0,0,0,0,0,0,0,0,0,0,0,0,0,0,0,0,0,0,0,0,0,0,0,0,0,0,0,0,0,0,0,0,0,0,0,0,0,0,0,0,0,0,0,0,0,0,0,0,0,0,0,0,0,0,0,0,0,0,0,0,0,0,0]}],[{"header":{"parameterUnit":"kt","parameterCategory":2,"dx":1,"dy":1,"la1":30.253999710083008,"la2":30.299108505249023,"lo1":-89.0895004272461,"lo2":-89.04439544677734,"nx":28,"ny":28,"refTime":"2022-10-08T21:00:00:Z","depth":0,"parameterNumber":2,"parameterNumberName":"V-component_of_WINDS"},"data":[-7.2224,-7.232,-7.2365,-7.2494,-7.2556,-7.2651,-7.2699,-7.2765,-7.2828,-7.2945,-7.302,-7.3071,-7.3148,-7.3245,-7.3326,-7.3346,-7.3378,-7.3382,-7.3405,-7.335,-7.3345,-7.334,-7.3323,-7.3388,-7.3388,-7.3457,-7.3458,-7.3458,-7.2186,-7.2249,-7.233,-7.2438,-7.2508,-7.2532,-7.2619,-7.2675,-7.2758,-7.2835,-7.2909,-7.3014,-7.31,-7.3177,-7.3267,-7.331,-7.3325,-7.3332,-7.333,-7.3342,-7.3284,-7.3265,-7.3319,-7.3319,-7.3319,-7.3319,-7.3319,-7.3319,-7.2131,-7.2186,-7.2278,-7.2365,-7.2431,-7.2502,-7.2561,-7.2624,-7.2701,-7.2802,-7.2835,-7.2928,-7.3011,-7.3137,-7.3189,-7.3261,-7.3261,-7.328,-7.3285,-7.329,-7.3291,-7.3191,-7.3277,-7.3277,-7.3277,-7.3277,-7.3277,0,-7.2104,-7.2138,-7.2217,-7.231,-7.2376,-7.2451,-7.2526,-7.2563,-7.2643,-7.2702,-7.2792,-7.285,-7.2963,-7.305,-7.3141,-7.3191,-7.3218,-7.3224,-7.3238,-7.3225,-7.3204,-7.3219,-7.3126,-7.322,-7.322,-7.322,-7.322,-7.3219,-7.2054,-7.2111,-7.2225,-7.2275,-7.2327,-7.2404,-7.2459,-7.2526,-7.258,-7.268,-7.2723,-7.2811,-7.2885,-7.3017,-7.3084,-7.3167,-7.3181,-7.3213,-7.3193,-7.318,-7.3185,-7.3182,-7.3189,-7.3216,-7.3216,-7.3217,-7.3217,0,-7.2022,-7.2092,-7.2193,-7.2299,-7.2327,-7.2383,-7.2473,-7.2528,-7.258,-7.2663,-7.2686,-7.2767,-7.2851,-7.2913,-7.3019,-7.3049,-7.3142,-7.3151,-7.3116,-7.3122,-7.3159,-7.3156,-7.3264,-7.3283,-7.3213,-7.3214,-7.3214,0,-7.2006,-7.2077,-7.2177,-7.2232,-7.2314,-7.2378,-7.2456,-7.2509,-7.2581,-7.2646,-7.2688,-7.2748,-7.2817,-7.2886,-7.2929,-7.3015,-7.3034,-7.3062,-7.3074,-7.306,-7.3057,-7.3089,-7.3086,-7.3092,-7.3091,-7.3091,-7.309,0,-7.195,-7.2084,-7.2174,-7.2215,-7.2333,-7.2372,-7.2422,-7.2502,-7.2553,-7.2629,-7.2663,-7.2745,-7.279,-7.2853,-7.2908,-7.2893,-7.3013,-7.3003,-7.3043,-7.3041,-7.3066,-7.3064,-7.3144,-7.309,-7.3089,-7.3089,-7.3089,0,-7.1947,-7.2026,-7.2144,-7.2244,-7.2276,-7.2332,-7.2421,-7.2483,-7.2564,-7.2596,-7.2655,-7.2689,-7.2767,-7.2754,-7.2862,-7.2827,-7.2869,-7.2903,-7.2906,-7.2918,-7.2901,-7.2941,-7.3009,-7.302,-7.2928,-7.2927,-7.2926,0,-7.1866,-7.2002,-7.2059,-7.2167,-7.2239,-7.2284,-7.2348,-7.2417,-7.2466,-7.2532,-7.2584,-7.2657,-7.2659,-7.2691,-7.2736,-7.2792,-7.2837,-7.2787,-7.2881,-7.2884,-7.2862,-7.2926,-7.2922,-7.2988,-7.2909,-7.2911,-7.2912,0,-7.1811,-7.1953,-7.1968,-7.2019,-7.2122,-7.218,-7.2252,-7.2341,-7.2382,-7.2453,-7.2516,-7.2618,-7.2626,-7.2675,-7.271,-7.2754,-7.2808,-7.2755,-7.2757,-7.2764,-7.2905,-7.2902,-7.2912,-7.2822,-7.2824,-7.2826,-7.2899,0,-7.1798,-7.1873,-7.1916,-7.2022,-7.2076,-7.2146,-7.2214,-7.2262,-7.2293,-7.2341,-7.2432,-7.25,-7.2586,-7.2612,-7.2639,-7.272,-7.2716,-7.2721,-7.2712,-7.2752,-7.2778,-7.2789,-7.2669,-7.2669,-7.2669,-7.2669,0,0,-7.1703,-7.1812,-7.1869,-7.1943,-7.1993,-7.2036,-7.2105,-7.2157,-7.226,-7.2294,-7.229,-7.2443,-7.2497,-7.26,-7.2618,-7.265,-7.2671,-7.2653,-7.2732,-7.2739,-7.2745,-7.2772,-7.2782,-7.2669,-7.2669,-7.2669,-7.2669,0,-7.1713,-7.1772,-7.1839,-7.1898,-7.1986,-7.2034,-7.205,-7.2143,-7.2177,-7.2265,-7.2297,-7.2358,-7.2475,-7.2531,-7.2575,-7.2643,-7.2662,-7.2663,-7.268,-7.2731,-7.2737,-7.2743,-7.2771,-7.2779,-7.2669,-7.2669,-7.2669,0,-7.1672,-7.1743,-7.1782,-7.1896,-7.1953,-7.2022,-7.2032,-7.2103,-7.2155,-7.2193,-7.228,-7.2326,-7.2403,-7.249,-7.2531,-7.2528,-7.2651,-7.2621,-7.2622,-7.2628,-7.268,-7.2688,-7.2695,-7.2603,-7.2602,-7.2602,0,0,-7.1671,-7.174,-7.1834,-7.1903,-7.1937,-7.2008,-7.2051,-7.2085,-7.2156,-7.2184,-7.2243,-7.2309,-7.2379,-7.2423,-7.2491,-7.2576,-7.2598,-7.261,-7.2614,-7.2616,-7.2623,-7.2675,-7.2683,-7.26,-7.26,-7.26,0,0,-7.1669,-7.1782,-7.18,-7.189,-7.1958,-7.2052,-7.2091,-7.2115,-7.2183,-7.2182,-7.224,-7.226,-7.2341,-7.2384,-7.2353,-7.2489,-7.2479,-7.2487,-7.2458,-7.2463,-7.2466,-7.2455,-7.2368,0,0,0,0,0,-7.1713,-7.1769,-7.1784,-7.1809,-7.1951,-7.2044,-7.2062,-7.2113,-7.2107,-7.2137,-7.2191,-7.2208,-7.238,-7.2354,-7.2376,-7.241,-7.2577,-7.2581,-7.2585,-7.2568,-7.2572,-7.2576,0,0,0,0,0,0,-7.1723,-7.1754,-7.1783,-7.1879,-7.1911,-7.2042,-7.2043,-7.2058,-7.2105,-7.2107,-7.2197,-7.2211,-7.2253,-7.2346,-7.2365,-7.2396,-7.2362,-7.2579,-7.2582,-7.2585,-7.257,-7.2573,-7.2576,0,0,0,0,0,-7.1732,-7.1756,-7.197,-7.1879,-7.1907,-7.1988,-7.2041,-7.2054,-7.2091,-7.2173,-7.2187,-7.2125,-7.2253,-7.2272,-7.2357,-7.2386,-7.2349,-7.2356,-7.2581,-7.2584,-7.2586,-7.2571,0,0,0,0,0,0,-7.1738,-7.1768,-7.1976,-7.1987,-7.1861,-7.1982,-7.2003,-7.205,-7.2154,-7.2169,-7.2103,-7.2104,-7.2253,-7.2268,-7.2283,-7.238,-7.2338,-7.2346,-7.235,-7.2583,-7.2585,-7.2587,0,0,0,0,0,0,-7.1755,-7.1776,-7.1982,-7.1957,-7.1965,-7.1976,-7.1994,-7.2072,-7.2154,-7.2078,-7.2082,-7.2102,-7.223,-7.2266,-7.2277,-7.2397,-7.233,-7.2337,-7.2342,-7.2345,-7.2585,-7.2586,0,0,0,0,0,0,-7.1765,-7.1783,-7.1955,-7.1961,-7.1968,-7.2088,-7.2045,-7.2186,-7.2136,-7.2073,-7.2133,-7.2132,-7.2226,-7.2239,-7.2273,-7.2387,-7.2394,-7.233,-7.2335,-7.2338,-7.2341,0,0,0,0,0,0,0,-7.1773,-7.1639,-7.1915,-7.1964,-7.197,-7.2083,-7.2086,-7.2088,-7.2136,-7.2135,-7.2134,-7.2132,-7.2291,-7.2299,-7.2306,-7.238,0,0,-7.233,-7.2333,0,0,0,0,0,0,0,0,-7.1632,-7.1637,-7.1916,-7.1918,-7.192,-7.2083,-7.2085,-7.2088,-7.2136,-7.2135,-7.2134,-7.2133,-7.2293,-7.2299,-7.2305,0,0,0,0,0,0,0,0,0,0,0,0,0,0,0,-7.1916,-7.1918,0,-7.2083,-7.2085,-7.2087,-7.2136,-7.2135,-7.2134,-7.2133,-7.2295,-7.23,-7.2305,0,0,0,0,0,0,0,0,0,0,0,0,0,0,0,0,0,0,0,0,0,0,0,0,0,0,0,0,0,0,0,0,0,0,0,0,0,0,0,0,0,0,0,0,0,0,0,0,0,0,0,0,0,0,0,0,0,0,0,0,0,0,0,0,0,0,0,0,0]}]]]